Weather History for Evansville, IN

Change the Weather History Date:

Saturday, January 11, 2014

  Actual Average Record
Temperature  
Mean Temperature 43 °F 32 °F  
Max Temperature 51 °F 41 °F 65 °F (1911)
Min Temperature 34 °F 24 °F -16 °F (1977)
Degree Days  
Heating Degree Days 22 33  
Month to date heating degree days 411 358  
Since 1 July heating degree days 2245 2130  
Cooling Degree Days 0 0  
Month to date cooling degree days 0 0  
Year to date cooling degree days 0 0  
Moisture  
Dew Point 39 °F    
Average Humidity 82    
Maximum Humidity 93    
Minimum Humidity 70    
Precipitation  
Precipitation 0.06 in 0.10 in 1.94 in (1913)
Month to date precipitation 1.55 1.09  
Year to date precipitation 1.55 1.09  
Snow  
Snow 0.00 in 0.10 in 3.10 in (2011)
Month to date snowfall T 1.2  
Since 1 July snowfall 7.2 4.7  
Snow Depth 0.00 in    
Sea Level Pressure  
Sea Level Pressure 29.70 in    
Wind  
Wind Speed 10 mph (WSW)    
Max Wind Speed 21 mph    
Max Gust Speed 26 mph    
Visibility 10 miles    
Events Rain    
T = Trace of Precipitation, MM = Missing Value Source: NWS Daily Summary

Daily Weather History Graph

Daily Weather History Graph

Search for Another Location

Airport:

Trip Planner

Search our weather history database for the weather conditions in past years. The results will help you decide how hot, cold, wet, or windy it might be!

Date:

Astronomy

Jan. 11, 2014 Rise Set
Actual Time 7:06 AM CST 4:50 PM CST
Civil Twilight 6:37 AM CST 5:19 PM CST
Nautical Twilight 6:04 AM CST 5:51 PM CST
Astronomical Twilight 5:32 AM CST 6:23 PM CST
Moon 1:33 PM CST (1/11) 3:11 AM CST (1/11)
Length of Visible Light 10h 42m
Length of Day
9h 44m
Waxing Gibbous, 83% of the Moon is Illuminated
Jan 11
Waxing Gibbous
Jan 15
Full
Jan 23
Last Quarter
Jan 30
New
Feb 6
First Quarter

Hourly Weather History & Observations

Time (CST) Temp. Windchill Dew Point Humidity Pressure Visibility Wind Dir Wind Speed Gust Speed Precip Events Conditions
12:54 AM 51.1 °F - 48.0 °F 89% 29.61 in 10.0 mi South 4.6 mph - 0.00 in Rain Light Rain
1:26 AM 50.0 °F - 48.0 °F 93% 29.59 in 10.0 mi South 6.9 mph - 0.01 in Rain Light Rain
1:47 AM 51.1 °F - 48.0 °F 89% 29.60 in 10.0 mi South 10.4 mph - 0.02 in Rain Light Rain
1:54 AM 51.1 °F - 48.0 °F 89% 29.60 in 10.0 mi South 10.4 mph - 0.03 in Rain Light Rain
2:29 AM 50.0 °F - 48.0 °F 93% 29.58 in 10.0 mi South 6.9 mph - 0.02 in Rain Light Rain
2:54 AM 50.0 °F - 48.0 °F 93% 29.57 in 9.0 mi South 6.9 mph - 0.03 in   Overcast
3:13 AM 50.0 °F - 48.0 °F 93% 29.56 in 10.0 mi SSW 5.8 mph - N/A   Overcast
3:27 AM 50.0 °F - 48.0 °F 93% 29.56 in 10.0 mi SSW 8.1 mph - N/A   Overcast
3:54 AM 50.0 °F - 48.0 °F 93% 29.57 in 10.0 mi SSW 11.5 mph - N/A   Overcast
4:41 AM 50.0 °F - 48.0 °F 93% 29.57 in 10.0 mi SW 10.4 mph - N/A   Overcast
4:54 AM 51.1 °F - 48.0 °F 89% 29.57 in 10.0 mi WSW 12.7 mph - N/A   Overcast
5:24 AM 50.0 °F - 46.9 °F 89% 29.59 in 10.0 mi WSW 12.7 mph - N/A   Overcast
5:45 AM 50.0 °F - 46.0 °F 86% 29.58 in 10.0 mi WSW 11.5 mph - N/A   Overcast
5:54 AM 50.0 °F - 46.0 °F 86% 29.59 in 10.0 mi West 13.8 mph - N/A   Overcast
6:54 AM 48.0 °F - 43.0 °F 83% 29.62 in 10.0 mi West 16.1 mph 21.9 mph N/A   Mostly Cloudy
7:01 AM 46.9 °F - 42.1 °F 83% 29.62 in 10.0 mi West 17.3 mph - N/A   Scattered Clouds
7:23 AM 46.0 °F 40.2 °F 39.9 °F 79% 29.64 in 10.0 mi West 12.7 mph - N/A   Mostly Cloudy
7:54 AM 45.0 °F 40.1 °F 39.0 °F 80% 29.66 in 10.0 mi West 9.2 mph - N/A   Overcast
8:54 AM 43.0 °F 35.1 °F 36.0 °F 76% 29.70 in 10.0 mi WSW 17.3 mph 24.2 mph N/A   Overcast
9:54 AM 43.0 °F 36.8 °F 36.0 °F 76% 29.72 in 10.0 mi West 11.5 mph - N/A   Overcast
10:54 AM 43.0 °F 36.0 °F 35.1 °F 74% 29.74 in 10.0 mi West 13.8 mph - N/A   Overcast
11:54 AM 42.1 °F 34.5 °F 34.0 °F 73% 29.73 in 10.0 mi West 15.0 mph - N/A   Overcast
12:54 PM 42.1 °F 34.9 °F 34.0 °F 73% 29.73 in 10.0 mi West 13.8 mph - N/A   Overcast
1:54 PM 42.1 °F 35.7 °F 34.0 °F 73% 29.74 in 10.0 mi West 11.5 mph - N/A   Overcast
2:54 PM 42.1 °F 35.2 °F 34.0 °F 73% 29.76 in 10.0 mi WSW 12.7 mph - N/A   Overcast
3:43 PM 43.0 °F 36.8 °F 34.0 °F 71% 29.77 in 10.0 mi West 11.5 mph - N/A   Scattered Clouds
3:54 PM 42.1 °F 35.7 °F 34.0 °F 73% 29.78 in 10.0 mi West 11.5 mph - N/A   Clear
4:54 PM 37.0 °F 32.4 °F 32.0 °F 82% 29.79 in 10.0 mi SW 5.8 mph - N/A   Clear
5:54 PM 36.0 °F 33.3 °F 32.0 °F 86% 29.81 in 10.0 mi SW 3.5 mph - N/A   Clear
6:54 PM 36.0 °F - 32.0 °F 86% 29.83 in 10.0 mi Calm Calm - N/A   Mostly Cloudy
7:54 PM 35.1 °F 28.6 °F 30.9 °F 85% 29.86 in 10.0 mi SW 8.1 mph - N/A   Clear
8:54 PM 35.1 °F 29.3 °F 30.9 °F 85% 29.88 in 10.0 mi WSW 6.9 mph - N/A   Clear
9:54 PM 37.0 °F 30.4 °F 33.1 °F 86% 29.91 in 10.0 mi WSW 9.2 mph - N/A   Clear
10:54 PM 36.0 °F 31.1 °F 30.9 °F 82% 29.92 in 10.0 mi West 5.8 mph - N/A   Clear
11:54 PM 35.1 °F 31.0 °F 28.9 °F 78% 29.94 in 10.0 mi WSW 4.6 mph - N/A   Clear